Burlington, VT

3:05 AM EDT on September 25, 2017 (GMT -0400)
Burlington International

Weather History for KBTV - August, 2014

Change the Weather History Date:

Thursday, August 7, 2014

  Actual Average Record
Temperature  
Mean Temperature 68 °F 70 °F  
Max Temperature 76 °F 80 °F 95 °F (2001)
Min Temperature 59 °F 60 °F 40 °F (1964)
Degree Days  
Heating Degree Days 0 1  
Month to date heating degree days 0 3  
Since 1 June heating degree days 21 89  
Since 1 July heating degree days 1 16  
Cooling Degree Days 3 5  
Month to date cooling degree days 50 41  
Year to date cooling degree days 400 344  
Since 1 June cooling degree days 378 325  
Growing Degree Days 17 (Base 50)    
Moisture  
Dew Point 56 °F    
Average Humidity 70    
Maximum Humidity 93    
Minimum Humidity 46    
Precipitation  
Precipitation 0.04 in 0.13 in 2.50 in (1893)
Month to date precipitation 0.30 0.96  
Year to date precipitation 23.95 21.12  
Snow  
Snow 0.00 in 0.00 in 0.00 in (2002)
Month to date snowfall 0.0 0.0  
Since 1 June snowfall 0.0 0.0  
Since 1 July snowfall 0.0 0.0  
Snow Depth 0.00 in    
Sea Level Pressure  
Sea Level Pressure 29.94 in    
Wind  
Wind Speed 5 mph (NNW)    
Max Wind Speed 17 mph    
Max Gust Speed 23 mph    
Visibility 10 miles    
Events Rain    
T = Trace of Precipitation, MM = Missing Value Source: NWS Daily Summary

Daily Weather History Graph

Daily Weather History Graph

Search for Another Location

Airport or City:

Trip Planner

Search our weather history database for the weather conditions in past years. The results will help you decide how hot, cold, wet, or windy it might be!

Date:

Astronomy

Aug. 07, 2014 Rise Set
Actual Time 5:46 AM EDT 8:09 PM EDT
Civil Twilight 5:13 AM EDT 8:42 PM EDT
Nautical Twilight 4:33 AM EDT 9:22 PM EDT
Astronomical Twilight 3:47 AM EDT 10:07 PM EDT
Moon 5:25 PM EDT (8/7) 2:11 AM EDT (8/7)
Length of Visible Light 15h 28m
Length of Day
14h 23m
Waxing Gibbous, 86% of the Moon is Illuminated
Aug 7
Waxing Gibbous
Aug 10
Full
Aug 17
Last Quarter
Aug 25
New
Sep 2
First Quarter

Hourly Weather History & Observations

Time (EDT) Temp. Dew Point Humidity Pressure Visibility Wind Dir Wind Speed Gust Speed Precip Events Conditions
12:54 AM 62.1 °F 59.0 °F 90% 29.90 in 10.0 mi Calm Calm - 0.02 in   Overcast
1:54 AM 62.1 °F 57.9 °F 86% 29.90 in 10.0 mi Calm Calm - N/A   Mostly Cloudy
2:54 AM 61.0 °F 57.9 °F 90% 29.90 in 10.0 mi Calm Calm - 0.03 in   Mostly Cloudy
3:54 AM 60.1 °F 57.9 °F 93% 29.90 in 10.0 mi SE 3.5 mph - N/A   Mostly Cloudy
4:54 AM 60.1 °F 57.0 °F 90% 29.90 in 10.0 mi Calm Calm - N/A   Mostly Cloudy
5:54 AM 59.0 °F 57.0 °F 93% 29.91 in 10.0 mi Calm Calm - N/A   Scattered Clouds
6:54 AM 63.0 °F 57.0 °F 81% 29.91 in 10.0 mi NW 3.5 mph - N/A   Mostly Cloudy
7:54 AM 63.0 °F 57.0 °F 81% 29.93 in 10.0 mi WNW 5.8 mph - N/A   Mostly Cloudy
8:54 AM 66.0 °F 55.9 °F 70% 29.94 in 10.0 mi Calm Calm - N/A   Mostly Cloudy
9:13 AM 66.0 °F 55.9 °F 70% 29.94 in 10.0 mi WNW 4.6 mph - N/A   Mostly Cloudy
9:54 AM 66.0 °F 55.9 °F 70% 29.94 in 10.0 mi West 5.8 mph - N/A   Mostly Cloudy
10:54 AM 70.0 °F 55.9 °F 61% 29.95 in 10.0 mi North 11.5 mph - N/A   Scattered Clouds
11:54 AM 70.0 °F 55.9 °F 61% 29.94 in 10.0 mi NNW 8.1 mph 18.4 mph N/A   Mostly Cloudy
12:13 PM 70.0 °F 55.0 °F 59% 29.95 in 10.0 mi NW 16.1 mph 23.0 mph N/A   Mostly Cloudy
12:45 PM 72.0 °F 52.0 °F 49% 29.94 in 10.0 mi North 9.2 mph - N/A   Mostly Cloudy
12:54 PM 73.0 °F 51.1 °F 46% 29.94 in 10.0 mi North 6.9 mph - N/A   Mostly Cloudy
1:54 PM 73.0 °F 55.0 °F 53% 29.93 in 10.0 mi NNW 15.0 mph - N/A   Mostly Cloudy
2:54 PM 73.0 °F 55.9 °F 55% 29.92 in 10.0 mi West 9.2 mph - N/A   Mostly Cloudy
3:54 PM 73.9 °F 51.1 °F 45% 29.91 in 10.0 mi NNW 11.5 mph - N/A   Scattered Clouds
4:54 PM 73.0 °F 54.0 °F 51% 29.93 in 10.0 mi North 9.2 mph - N/A   Mostly Cloudy
5:54 PM 69.1 °F 57.0 °F 65% 29.95 in 10.0 mi NNE 13.8 mph - 0.00 in Rain Light Rain
6:54 PM 66.0 °F 57.9 °F 75% 29.96 in 10.0 mi NE 3.5 mph - 0.01 in   Mostly Cloudy
7:54 PM 66.0 °F 57.0 °F 73% 29.97 in 10.0 mi Calm Calm - N/A   Overcast
8:54 PM 64.9 °F 57.0 °F 75% 29.99 in 10.0 mi SSE 3.5 mph - N/A   Overcast
9:54 PM 64.0 °F 57.0 °F 78% 29.99 in 10.0 mi Calm Calm - N/A   Overcast
10:54 PM 63.0 °F 59.0 °F 87% 29.99 in 10.0 mi Calm Calm - N/A   Overcast
11:54 PM 61.0 °F 57.0 °F 87% 30.00 in 10.0 mi Calm Calm - N/A   Scattered Clouds